Вернуться в каталог

COSMOS 2374

GLONASS

АктивенНавигацияMEO
NORAD 26566·PAYLOAD·🇷🇺 Russia

Запущен Oct 13, 2000 с Baikonur Cosmodrome

Loading…

Ближайшие Пролёты (ближайшие 24 часа)

TLE

СвежийSource: Space-Track

Эпоха: Sep 14, 2026, 03:11 UTC

1 26566U 00063C   26257.13276553 -.00000051  00000-0  00000-0 0  9995
2 26566  65.1191 310.5297 0080159 208.8425 136.0696  2.13099784201646

Отслеживайте COSMOS 2374 в реальном времени с AllMySat

Download on the App Store